Location: ???? ?????
(30.0052°N, 31.2891°E)
Time: 20:55:21
(UTC+00:00)

SL-16 R/B - Pass Details

Date: 26 May 2022
Orbit: 839 x 850 km, 71.0° (Epoch: 04 July)

Event Time Altitude Azimuth Distance (km) Brightness Sun altitude
Exits shadow 00:16:35 31° 308° (NW) 1,430 3.3 -28.2°
Drops below altitude 10° 00:20:58 10° 358° (N) 2,464 5.2 -27.6°
Sets 00:23:41 0° 8° (N) 3,404 6.2 -27.2°
